[[{"header":{"parameterUnit":"m.s-1","parameterCategory":1,"la1":30.2991,"la2":30.254,"lo1":-89.0895,"lo2":-89.0444,"dy":0.0017,"dx":0.0017,"nx":28,"ny":28,"refTime":"2025-05-23T09:00:00:Z","depth":0,"parameterNumber":2,"parameterNumberName":"U-component_of_WINDS"},"data":[0,0,0,0,0,0,0,0,0,0,0,0,0,0,0,0,0,0,0,0,0,0,0,0,0,0,0,0,0,0,0,0,0,0,0,0,0,0,0,0,0,0,0,0,0,0,0,0,0,0,0,0,0,0,0,0,0,0,0.3012,0.3013,0,0.3119,0.312,0.3121,0.3163,0.3162,0.3162,0.3162,0.3272,0.3275,0.3278,0,0,0,0,0,0,0,0,0,0,0,0,0,0.2842,0.2845,0.3011,0.3013,0.3014,0.3119,0.312,0.3121,0.3163,0.3162,0.3162,0.3162,0.3271,0.3274,0.3278,0,0,0,0,0,0,0,0,0,0,0,0,0,0.2929,0.2846,0.3011,0.3047,0.3052,0.3118,0.312,0.3122,0.3163,0.3162,0.3162,0.3161,0.3269,0.3274,0.3279,0.3317,0,0,0.3293,0.3296,0,0,0,0,0,0,0,0,0.2924,0.2935,0.3041,0.3045,0.305,0.3127,0.3101,0.3187,0.3163,0.3121,0.3162,0.3161,0.3224,0.3232,0.3253,0.3323,0.3327,0.3294,0.3297,0.3299,0.33,0,0,0,0,0,0,0,0.2918,0.2931,0.3054,0.3042,0.3048,0.3058,0.307,0.3117,0.3173,0.3124,0.3127,0.314,0.3226,0.3249,0.3256,0.3329,0.3294,0.3298,0.3301,0.3303,0.3434,0.3435,0,0,0,0,0,0,0.2906,0.2925,0.3051,0.3057,0.2984,0.3061,0.3075,0.3103,0.3173,0.3183,0.314,0.3141,0.3241,0.3251,0.326,0.331,0.3299,0.3303,0.3306,0.3434,0.3435,0.3435,0,0,0,0,0,0,0.2902,0.2917,0.3046,0.2992,0.3009,0.3065,0.3096,0.3105,0.3127,0.3185,0.3195,0.3153,0.3241,0.3254,0.3303,0.3314,0.3306,0.331,0.3433,0.3434,0.3435,0.3409,0,0,0,0,0,0,0.2897,0.2915,0.293,0.2992,0.3012,0.3087,0.3097,0.3107,0.3136,0.3138,0.3199,0.3209,0.3241,0.3295,0.3308,0.3321,0.3314,0.3432,0.3433,0.3435,0.3409,0.3409,0.3409,0,0,0,0,0,0.2891,0.2919,0.2931,0.2946,0.3033,0.3087,0.3099,0.3135,0.3136,0.3152,0.3189,0.3207,0.3311,0.33,0.3314,0.3329,0.3432,0.3433,0.3434,0.3409,0.3409,0.3409,0,0,0,0,0,0,0.2858,0.2928,0.2942,0.2991,0.3033,0.3094,0.3116,0.3134,0.3177,0.3177,0.3221,0.3234,0.328,0.3309,0.3296,0.337,0.3373,0.3377,0.3349,0.3349,0.3349,0.3341,0.3318,0,0,0,0,0,0.2856,0.2895,0.2954,0.2992,0.3012,0.306,0.3085,0.311,0.3155,0.3173,0.3213,0.3256,0.3298,0.3325,0.3368,0.3414,0.3427,0.3431,0.3431,0.343,0.3433,0.3459,0.3462,0.344,0.344,0.344,0,0,0.2853,0.2896,0.2918,0.2986,0.3022,0.306,0.3075,0.3115,0.3145,0.3179,0.3228,0.3259,0.331,0.3357,0.338,0.3383,0.3442,0.3432,0.3431,0.3435,0.3461,0.3463,0.3465,0.3441,0.344,0.344,0,0,0.2868,0.2904,0.294,0.2975,0.3028,0.3059,0.3067,0.3126,0.3148,0.3197,0.3224,0.3259,0.3331,0.3366,0.3393,0.342,0.3438,0.3432,0.3432,0.3456,0.3458,0.346,0.3469,0.3472,0.3435,0.3435,0.3435,0,0.2858,0.2917,0.2955,0.2995,0.3023,0.3056,0.3092,0.3124,0.3188,0.3207,0.3209,0.33,0.3336,0.3392,0.3398,0.3419,0.343,0.3426,0.3455,0.3457,0.3459,0.3468,0.3472,0.3434,0.3434,0.3434,0.3434,0,0.2902,0.2943,0.2965,0.3026,0.3057,0.3094,0.3137,0.3164,0.3186,0.3217,0.3266,0.3311,0.3363,0.3378,0.3399,0.3437,0.3437,0.3446,0.345,0.3459,0.3469,0.3473,0.3432,0.3433,0.3433,0.3433,0,0,0.2899,0.298,0.2987,0.3015,0.3076,0.3108,0.3146,0.3196,0.3218,0.3261,0.3294,0.3354,0.3363,0.3393,0.3419,0.3441,0.3458,0.3448,0.345,0.3448,0.3502,0.3494,0.3498,0.3471,0.3471,0.3472,0.3497,0,0.2922,0.2992,0.3027,0.3082,0.312,0.3151,0.3184,0.3224,0.3254,0.329,0.3323,0.3365,0.3374,0.3393,0.3415,0.3451,0.347,0.345,0.3502,0.3503,0.3488,0.3503,0.3495,0.3517,0.3501,0.3502,0.3503,0,0.2958,0.3,0.3058,0.3114,0.3131,0.316,0.3209,0.3243,0.3289,0.3309,0.3343,0.3368,0.3409,0.3409,0.3466,0.3452,0.3475,0.3496,0.3498,0.3504,0.3503,0.3509,0.3525,0.3528,0.3509,0.3508,0.3508,0,0.2949,0.3021,0.3065,0.3088,0.3154,0.3173,0.3201,0.3247,0.3275,0.3317,0.3335,0.3381,0.3407,0.3442,0.3478,0.3475,0.3532,0.3535,0.3549,0.3548,0.356,0.3559,0.3579,0.3575,0.3575,0.3575,0.3575,0,0.2971,0.3006,0.3062,0.3089,0.3129,0.3168,0.3206,0.3236,0.3277,0.331,0.3339,0.337,0.3416,0.3453,0.3481,0.3524,0.3535,0.3553,0.356,0.355,0.3548,0.3566,0.3565,0.3576,0.3575,0.3575,0.3575,0,0.2969,0.3008,0.3058,0.3116,0.3131,0.3158,0.3207,0.3234,0.3265,0.3307,0.3319,0.3368,0.3412,0.3451,0.351,0.353,0.3573,0.3582,0.3557,0.3561,0.3573,0.3571,0.3606,0.3612,0.3603,0.3603,0.3603,0,0.298,0.3007,0.3068,0.3092,0.312,0.3159,0.3187,0.3226,0.3254,0.3309,0.3329,0.3375,0.3414,0.3483,0.3524,0.3569,0.3579,0.3588,0.3586,0.3575,0.3579,0.3577,0.358,0.3588,0.3588,0.3588,0.3588,0,0.2995,0.3013,0.3053,0.3099,0.3131,0.317,0.3209,0.3227,0.3274,0.3304,0.3349,0.3379,0.3439,0.3484,0.3534,0.3563,0.3583,0.3588,0.3593,0.3584,0.3568,0.3577,0.3556,0.3587,0.3587,0.3587,0.3587,0.3587,0.3,0.3025,0.3072,0.3115,0.3148,0.3184,0.3212,0.3246,0.3285,0.3336,0.3357,0.3403,0.3448,0.3516,0.3545,0.3581,0.3585,0.3593,0.3595,0.3597,0.3595,0.3562,0.359,0.359,0.3591,0.3591,0.3591,0,0.3017,0.3048,0.3087,0.3141,0.3174,0.319,0.3234,0.3261,0.3301,0.3341,0.3378,0.343,0.3474,0.3518,0.3564,0.3585,0.3595,0.3595,0.3594,0.3601,0.3589,0.3579,0.3586,0.3586,0.3586,0.3586,0.3586,0.3586,0.303,0.3073,0.3096,0.3156,0.3188,0.3233,0.3256,0.3289,0.3321,0.3378,0.3414,0.3442,0.3484,0.3533,0.3574,0.3586,0.3601,0.3599,0.3613,0.3601,0.3601,0.3601,0.3593,0.3602,0.3602,0.3622,0.3622,0.3622]},{"header":{"parameterUnit":"m.s-1","parameterCategory":1,"la1":30.2991,"la2":30.254,"lo1":-89.0895,"lo2":-89.0444,"dy":0.0017,"dx":0.0017,"nx":28,"ny":28,"refTime":"2025-05-23T09:00:00:Z","depth":0,"parameterNumber":3,"parameterNumberName":"V-component_of_WINDS"},"data":[0,0,0,0,0,0,0,0,0,0,0,0,0,0,0,0,0,0,0,0,0,0,0,0,0,0,0,0,0,0,0,0,0,0,0,0,0,0,0,0,0,0,0,0,0,0,0,0,0,0,0,0,0,0,0,0,0,0,3.4769,3.4769,0,3.476,3.476,3.476,3.4687,3.4685,3.4684,3.4682,3.4673,3.4675,3.4676,0,0,0,0,0,0,0,0,0,0,0,0,0,3.4723,3.4724,3.4769,3.4769,3.4769,3.476,3.476,3.476,3.4688,3.4685,3.4683,3.4681,3.4673,3.4674,3.4676,0,0,0,0,0,0,0,0,0,0,0,0,0,3.4731,3.4725,3.4769,3.4732,3.4728,3.476,3.476,3.476,3.4688,3.4685,3.4683,3.468,3.4672,3.4674,3.4676,3.4744,0,0,3.4683,3.4684,0,0,0,0,0,0,0,0,3.4731,3.4733,3.4737,3.4734,3.473,3.4722,3.474,3.4754,3.4689,3.4703,3.4682,3.4679,3.4692,3.4692,3.4696,3.4743,3.4743,3.4683,3.4685,3.4685,3.4686,0,0,0,0,0,0,0,3.4731,3.4733,3.4765,3.4737,3.4733,3.4715,3.4713,3.4743,3.4713,3.4702,3.4696,3.4696,3.4689,3.4694,3.4696,3.4743,3.4683,3.4685,3.4686,3.4687,3.4845,3.4848,0,0,0,0,0,0,3.4735,3.4733,3.4766,3.4765,3.4724,3.4718,3.4716,3.4727,3.4712,3.4707,3.4699,3.4693,3.4692,3.4693,3.4695,3.4773,3.4685,3.4687,3.4689,3.4842,3.4845,3.4849,0,0,0,0,0,0,3.4734,3.4739,3.4766,3.4748,3.475,3.4722,3.4735,3.4729,3.4734,3.471,3.4704,3.471,3.469,3.4692,3.4732,3.4772,3.4688,3.469,3.4839,3.4843,3.4847,3.493,0,0,0,0,0,0,3.4733,3.4739,3.4764,3.4749,3.4751,3.4804,3.4737,3.473,3.4738,3.473,3.4718,3.4714,3.4688,3.4729,3.4734,3.4773,3.4692,3.4835,3.4841,3.4846,3.4924,3.4937,3.4948,0,0,0,0,0,3.4732,3.4788,3.4766,3.477,3.4782,3.4806,3.4807,3.4776,3.4741,3.4766,3.4751,3.4714,3.4767,3.4734,3.4739,3.4779,3.4832,3.4839,3.4845,3.4918,3.4934,3.4948,0,0,0,0,0,0,3.4809,3.4785,3.476,3.4813,3.4812,3.4794,3.4824,3.4794,3.4803,3.4796,3.4757,3.4755,3.4801,3.4794,3.4758,3.4844,3.4793,3.4801,3.4847,3.4862,3.4874,3.4875,3.4694,0,0,0,0,0,3.4832,3.4853,3.4831,3.488,3.488,3.4853,3.4862,3.4838,3.4836,3.4835,3.4822,3.4822,3.4838,3.4849,3.4863,3.4922,3.4919,3.4952,3.4964,3.4974,3.4982,3.5013,3.5028,3.487,3.487,3.487,0,0,3.4879,3.4869,3.4885,3.4895,3.4891,3.4914,3.4853,3.488,3.4897,3.4839,3.4876,3.4867,3.4864,3.4914,3.4936,3.491,3.5025,3.4983,3.4991,3.4993,3.5021,3.5037,3.505,3.4874,3.4874,3.4873,0,0,3.4978,3.4972,3.5012,3.501,3.5006,3.4987,3.4997,3.4983,3.4975,3.5012,3.4969,3.4988,3.5017,3.5016,3.502,3.5119,3.5086,3.5124,3.5188,3.5219,3.5231,3.5242,3.5278,3.5292,3.5131,3.5132,3.5132,0,3.5038,3.5071,3.5037,3.5067,3.5073,3.5021,3.5062,3.5061,3.5061,3.5067,3.5037,3.5072,3.5066,3.5116,3.514,3.5144,3.5155,3.5126,3.5232,3.5243,3.5252,3.5286,3.53,3.5136,3.5136,3.5135,3.5135,0,3.5146,3.5169,3.5202,3.5204,3.5213,3.5248,3.5219,3.5233,3.5208,3.5193,3.5231,3.5222,3.5233,3.5243,3.5219,3.529,3.5274,3.5239,3.5187,3.5273,3.5304,3.5317,3.5143,3.5142,3.514,3.5139,0,0,3.5293,3.5275,3.5288,3.5288,3.528,3.5297,3.533,3.5341,3.5354,3.5355,3.5382,3.5408,3.5376,3.538,3.5355,3.5383,3.5463,3.5344,3.5344,3.5367,3.5541,3.5568,3.5583,3.544,3.5443,3.5444,3.5541,0,3.5389,3.5444,3.5414,3.5473,3.5495,3.5447,3.5475,3.5473,3.546,3.5476,3.5461,3.548,3.5436,3.5438,3.5463,3.5448,3.5497,3.544,3.5465,3.5467,3.5469,3.5599,3.5628,3.572,3.5553,3.5555,3.5557,0,3.5508,3.5515,3.5577,3.5565,3.5573,3.5599,3.5607,3.5623,3.562,3.5608,3.5613,3.5582,3.5613,3.5562,3.5605,3.5567,3.5575,3.557,3.5572,3.5574,3.5518,3.5606,3.5748,3.5762,3.5575,3.5574,3.5573,0,3.5611,3.5636,3.5676,3.5678,3.5664,3.5684,3.5679,3.5673,3.5681,3.5688,3.5693,3.5704,3.5709,3.5718,3.5691,3.5656,3.5738,3.5684,3.573,3.5731,3.575,3.5749,3.5897,3.5754,3.5754,3.5754,3.5754,0,3.5721,3.5761,3.5722,3.5747,3.579,3.5755,3.5799,3.5789,3.5784,3.5806,3.5764,3.5786,3.5749,3.5767,3.5745,3.5785,3.5788,3.5779,3.5773,3.5784,3.5785,3.5789,3.5783,3.5757,3.5757,3.5756,3.5755,0,3.5844,3.5819,3.586,3.5843,3.584,3.5873,3.5859,3.5881,3.5865,3.5893,3.5898,3.5872,3.5891,3.5865,3.5881,3.5867,3.5921,3.5905,3.5923,3.5919,3.5966,3.5962,3.6122,3.6142,3.5986,3.5988,3.5989,0,3.5917,3.5946,3.5933,3.5945,3.5943,3.5962,3.5971,3.5937,3.5948,3.5946,3.5969,3.5985,3.5996,3.6029,3.6012,3.6024,3.6009,3.6064,3.601,3.602,3.601,3.601,3.6013,3.6075,3.6077,3.6078,3.608,0,3.6049,3.6035,3.6049,3.6059,3.607,3.6077,3.608,3.6092,3.6056,3.6071,3.609,3.6098,3.6115,3.6131,3.6139,3.6134,3.6102,3.6096,3.6108,3.6119,3.6129,3.6125,3.5954,3.6093,3.6092,3.6091,3.609,3.609,3.6149,3.6173,3.6168,3.6185,3.6184,3.6188,3.6208,3.6194,3.6209,3.6221,3.62,3.6224,3.622,3.6228,3.6226,3.6245,3.6221,3.6238,3.6242,3.6247,3.6255,3.6125,3.6247,3.6246,3.6246,3.6245,3.6245,0,3.628,3.6274,3.629,3.6296,3.6309,3.6277,3.6278,3.6292,3.6314,3.6313,3.6325,3.6347,3.6363,3.6347,3.6359,3.6378,3.6363,3.6382,3.6381,3.6381,3.6275,3.6264,3.6394,3.6394,3.6394,3.6394,3.6394,3.6394,3.635,3.6389,3.6375,3.6414,3.6407,3.6431,3.6435,3.6438,3.6437,3.6464,3.6477,3.6466,3.646,3.6471,3.6485,3.6479,3.6486,3.6511,3.6501,3.6403,3.6388,3.6374,3.6364,3.6513,3.6513,3.6606,3.6606,3.6607]}]]